contact:dominique.lefevre@mio.osupytheas.fr, maurice.libes@osupytheas.fr, didier.mallarino@osupytheas.fr
Project:EMSO http://www.emso-fr.org/EMSO-France
Depth: 2436.0 m
Title:EMSO Ligure Ouest : Data MII capteur MICROCAT
DateTime_Computer,Latitude,Longitude,Temperature,Conductivity,Pressure,DateTime_Instrument
DateTime_Computer,Latitude,Longitude,degC,S m-1,dbar,DateTime_Instrument
2021-10-24T00:02:08Z,42.805,6.029,13.3006,4.60043,2470.366,2021-10-24T02:03:32Z
2021-10-24T00:05:11Z,42.805,6.029,13.2999,4.60045,2470.39,2021-10-24T02:06:35Z
2021-10-24T00:08:14Z,42.805,6.029,13.2993,4.60031,2470.366,2021-10-24T02:09:38Z
2021-10-24T00:11:17Z,42.805,6.029,13.2996,4.60037,2470.38,2021-10-24T02:12:42Z
2021-10-24T00:14:21Z,42.805,6.029,13.3000,4.60044,2470.427,2021-10-24T02:15:45Z
2021-10-24T00:17:24Z,42.805,6.029,13.3007,4.60045,2470.39,2021-10-24T02:18:48Z
2021-10-24T00:20:27Z,42.805,6.029,13.3000,4.60045,2470.366,2021-10-24T02:21:51Z
2021-10-24T00:23:30Z,42.805,6.029,13.3005,4.60040,2470.366,2021-10-24T02:24:54Z
2021-10-24T00:26:33Z,42.805,6.029,13.2996,4.60033,2470.404,2021-10-24T02:27:57Z
2021-10-24T00:29:36Z,42.805,6.029,13.3006,4.60038,2470.38,2021-10-24T02:31:00Z
2021-10-24T00:32:39Z,42.805,6.029,13.2997,4.60034,2470.343,2021-10-24T02:34:03Z
2021-10-24T00:35:42Z,42.805,6.029,13.2999,4.60041,2470.366,2021-10-24T02:37:07Z
2021-10-24T00:38:46Z,42.805,6.029,13.3004,4.60019,2470.404,2021-10-24T02:40:10Z
2021-10-24T00:41:49Z,42.805,6.029,13.3012,4.60037,2470.366,2021-10-24T02:43:13Z
2021-10-24T00:44:52Z,42.805,6.029,13.3012,4.60039,2470.38,2021-10-24T02:46:16Z
2021-10-24T00:47:55Z,42.805,6.029,13.3011,4.60036,2470.366,2021-10-24T02:49:19Z
2021-10-24T00:50:58Z,42.805,6.029,13.2997,4.60032,2470.357,2021-10-24T02:52:22Z
2021-10-24T00:54:01Z,42.805,6.029,13.3007,4.60052,2470.38,2021-10-24T02:55:25Z
2021-10-24T00:57:04Z,42.805,6.029,13.2998,4.60028,2470.343,2021-10-24T02:58:28Z
2021-10-24T01:00:07Z,42.805,6.029,13.3000,4.60041,2470.366,2021-10-24T03:01:32Z
2021-10-24T01:03:11Z,42.805,6.029,13.3009,4.60040,2470.334,2021-10-24T03:04:35Z
2021-10-24T01:06:14Z,42.805,6.029,13.3006,4.60049,2470.38,2021-10-24T03:07:38Z
2021-10-24T01:09:17Z,42.805,6.029,13.2997,4.60035,2470.357,2021-10-24T03:10:41Z
2021-10-24T01:12:20Z,42.805,6.029,13.3004,4.60029,2470.343,2021-10-24T03:13:44Z
2021-10-24T01:15:23Z,42.805,6.029,13.2999,4.60024,2470.343,2021-10-24T03:16:47Z
2021-10-24T01:18:26Z,42.805,6.029,13.2999,4.60029,2470.38,2021-10-24T03:19:50Z
2021-10-24T01:21:29Z,42.805,6.029,13.3004,4.60040,2470.357,2021-10-24T03:22:53Z
2021-10-24T01:24:32Z,42.805,6.029,13.3009,4.60048,2470.343,2021-10-24T03:25:57Z
2021-10-24T01:27:36Z,42.805,6.029,13.3006,4.60039,2470.343,2021-10-24T03:29:00Z
2021-10-24T01:30:39Z,42.805,6.029,13.3002,4.60040,2470.343,2021-10-24T03:32:03Z
2021-10-24T01:33:42Z,42.805,6.029,13.3001,4.60023,2470.343,2021-10-24T03:35:06Z
2021-10-24T01:36:45Z,42.805,6.029,13.3000,4.60038,2470.343,2021-10-24T03:38:09Z
2021-10-24T01:39:48Z,42.805,6.029,13.3002,4.60042,2470.366,2021-10-24T03:41:12Z
2021-10-24T01:42:51Z,42.805,6.029,13.3001,4.60031,2470.343,2021-10-24T03:44:15Z
2021-10-24T01:45:54Z,42.805,6.029,13.3005,4.60051,2470.357,2021-10-24T03:47:18Z
2021-10-24T01:48:57Z,42.805,6.029,13.2998,4.60044,2470.357,2021-10-24T03:50:22Z
2021-10-24T01:52:01Z,42.805,6.029,13.3001,4.60051,2470.334,2021-10-24T03:53:25Z
2021-10-24T01:55:04Z,42.805,6.029,13.3005,4.60032,2470.357,2021-10-24T03:56:28Z
2021-10-24T01:58:07Z,42.805,6.029,13.3001,4.60027,2470.357,2021-10-24T03:59:31Z
2021-10-24T02:01:10Z,42.805,6.029,13.3010,4.60031,2470.297,2021-10-24T04:02:34Z
2021-10-24T02:04:13Z,42.805,6.029,13.2999,4.60042,2470.334,2021-10-24T04:05:37Z
2021-10-24T02:07:16Z,42.805,6.029,13.3004,4.60043,2470.343,2021-10-24T04:08:40Z
2021-10-24T02:10:19Z,42.805,6.029,13.3000,4.60035,2470.366,2021-10-24T04:11:43Z
2021-10-24T02:13:22Z,42.805,6.029,13.3006,4.60034,2470.357,2021-10-24T04:14:47Z
2021-10-24T02:16:25Z,42.805,6.029,13.3008,4.60038,2470.334,2021-10-24T04:17:50Z
2021-10-24T02:19:29Z,42.805,6.029,13.2995,4.60033,2470.334,2021-10-24T04:20:53Z
2021-10-24T02:22:32Z,42.805,6.029,13.2995,4.60031,2470.357,2021-10-24T04:23:56Z
2021-10-24T02:25:35Z,42.805,6.029,13.2999,4.60034,2470.366,2021-10-24T04:26:59Z
2021-10-24T02:28:38Z,42.805,6.029,13.3002,4.60045,2470.334,2021-10-24T04:30:02Z
2021-10-24T02:31:41Z,42.805,6.029,13.2997,4.60040,2470.297,2021-10-24T04:33:05Z
2021-10-24T02:34:44Z,42.805,6.029,13.3006,4.60029,2470.334,2021-10-24T04:36:08Z
2021-10-24T02:37:47Z,42.805,6.029,13.3003,4.60033,2470.334,2021-10-24T04:39:12Z
2021-10-24T02:40:50Z,42.805,6.029,13.3002,4.60028,2470.343,2021-10-24T04:42:15Z
2021-10-24T02:43:54Z,42.805,6.029,13.2995,4.60028,2470.343,2021-10-24T04:45:18Z
2021-10-24T02:46:57Z,42.805,6.029,13.2996,4.60020,2470.31,2021-10-24T04:48:21Z
2021-10-24T02:50:00Z,42.805,6.029,13.3003,4.60030,2470.334,2021-10-24T04:51:24Z
2021-10-24T02:53:03Z,42.805,6.029,13.2997,4.60022,2470.32,2021-10-24T04:54:27Z
2021-10-24T02:56:06Z,42.805,6.029,13.2996,4.60029,2470.343,2021-10-24T04:57:30Z
2021-10-24T02:59:09Z,42.805,6.029,13.2998,4.60029,2470.32,2021-10-24T05:00:33Z
2021-10-24T03:02:12Z,42.805,6.029,13.2995,4.60032,2470.334,2021-10-24T05:03:37Z
2021-10-24T03:05:15Z,42.805,6.029,13.2996,4.60030,2470.343,2021-10-24T05:06:40Z
2021-10-24T03:08:19Z,42.805,6.029,13.2996,4.60029,2470.334,2021-10-24T05:09:43Z
2021-10-24T03:11:22Z,42.805,6.029,13.2998,4.60039,2470.31,2021-10-24T05:12:46Z
2021-10-24T03:14:25Z,42.805,6.029,13.2998,4.60030,2470.297,2021-10-24T05:15:49Z
2021-10-24T03:17:28Z,42.805,6.029,13.3000,4.60035,2470.343,2021-10-24T05:18:52Z
2021-10-24T03:20:31Z,42.805,6.029,13.2998,4.60031,2470.334,2021-10-24T05:21:55Z
2021-10-24T03:23:34Z,42.805,6.029,13.2996,4.60024,2470.357,2021-10-24T05:24:58Z
2021-10-24T03:26:37Z,42.805,6.029,13.2996,4.60026,2470.297,2021-10-24T05:28:02Z
2021-10-24T03:29:40Z,42.805,6.029,13.2998,4.60031,2470.343,2021-10-24T05:31:05Z
2021-10-24T03:32:44Z,42.805,6.029,13.2998,4.60029,2470.32,2021-10-24T05:34:08Z
2021-10-24T03:35:47Z,42.805,6.029,13.2997,4.60015,2470.343,2021-10-24T05:37:11Z
2021-10-24T03:38:50Z,42.805,6.029,13.2998,4.60033,2470.334,2021-10-24T05:40:14Z
2021-10-24T03:41:53Z,42.805,6.029,13.2996,4.60045,2470.32,2021-10-24T05:43:17Z
2021-10-24T03:44:56Z,42.805,6.029,13.2999,4.60033,2470.343,2021-10-24T05:46:20Z
2021-10-24T03:47:59Z,42.805,6.029,13.3000,4.60039,2470.38,2021-10-24T05:49:23Z
2021-10-24T03:51:02Z,42.805,6.029,13.2998,4.60033,2470.32,2021-10-24T05:52:26Z
2021-10-24T03:54:05Z,42.805,6.029,13.3002,4.60022,2470.343,2021-10-24T05:55:30Z
2021-10-24T03:57:09Z,42.805,6.029,13.2996,4.60038,2470.343,2021-10-24T05:58:33Z
2021-10-24T04:00:12Z,42.805,6.029,13.2996,4.60023,2470.343,2021-10-24T06:01:36Z
2021-10-24T04:03:15Z,42.805,6.029,13.2996,4.60028,2470.343,2021-10-24T06:04:39Z
2021-10-24T04:06:18Z,42.805,6.029,13.2997,4.60026,2470.334,2021-10-24T06:07:42Z
2021-10-24T04:09:21Z,42.805,6.029,13.2996,4.60029,2470.357,2021-10-24T06:10:45Z
2021-10-24T04:12:24Z,42.805,6.029,13.2997,4.60036,2470.357,2021-10-24T06:13:48Z
2021-10-24T04:15:27Z,42.805,6.029,13.3005,4.60039,2470.357,2021-10-24T06:16:51Z
2021-10-24T04:18:30Z,42.805,6.029,13.3000,4.60027,2470.343,2021-10-24T06:19:55Z
2021-10-24T04:21:34Z,42.805,6.029,13.3002,4.60045,2470.343,2021-10-24T06:22:58Z
2021-10-24T04:24:37Z,42.805,6.029,13.3000,4.60034,2470.366,2021-10-24T06:26:01Z
2021-10-24T04:27:40Z,42.805,6.029,13.3002,4.60042,2470.334,2021-10-24T06:29:04Z
2021-10-24T04:30:43Z,42.805,6.029,13.2996,4.60032,2470.366,2021-10-24T06:32:07Z
2021-10-24T04:33:46Z,42.805,6.029,13.3000,4.60042,2470.366,2021-10-24T06:35:10Z
2021-10-24T04:36:49Z,42.805,6.029,13.2993,4.60033,2470.357,2021-10-24T06:38:13Z
2021-10-24T04:39:52Z,42.805,6.029,13.2998,4.60047,2470.366,2021-10-24T06:41:16Z
2021-10-24T04:42:55Z,42.805,6.029,13.2997,4.60028,2470.366,2021-10-24T06:44:20Z
2021-10-24T04:45:59Z,42.805,6.029,13.3000,4.60040,2470.38,2021-10-24T06:47:23Z
2021-10-24T04:49:02Z,42.805,6.029,13.3004,4.60052,2470.357,2021-10-24T06:50:26Z
2021-10-24T04:52:05Z,42.805,6.029,13.3006,4.60039,2470.38,2021-10-24T06:53:29Z
2021-10-24T04:55:08Z,42.805,6.029,13.3002,4.60042,2470.39,2021-10-24T06:56:32Z
2021-10-24T04:58:11Z,42.805,6.029,13.2995,4.60024,2470.38,2021-10-24T06:59:35Z
2021-10-24T05:01:14Z,42.805,6.029,13.2995,4.60035,2470.366,2021-10-24T07:02:38Z
2021-10-24T05:04:17Z,42.805,6.029,13.3003,4.60043,2470.38,2021-10-24T07:05:41Z
2021-10-24T05:07:20Z,42.805,6.029,13.2997,4.60019,2470.366,2021-10-24T07:08:45Z
2021-10-24T05:10:24Z,42.805,6.029,13.2998,4.60035,2470.38,2021-10-24T07:11:48Z
2021-10-24T05:13:27Z,42.805,6.029,13.3001,4.60036,2470.343,2021-10-24T07:14:51Z
2021-10-24T05:16:30Z,42.805,6.029,13.2997,4.60034,2470.366,2021-10-24T07:17:54Z
2021-10-24T05:19:33Z,42.805,6.029,13.2999,4.60036,2470.38,2021-10-24T07:20:57Z
2021-10-24T05:22:36Z,42.805,6.029,13.2997,4.60026,2470.39,2021-10-24T07:24:00Z
2021-10-24T05:25:39Z,42.805,6.029,13.3002,4.60041,2470.38,2021-10-24T07:27:03Z
2021-10-24T05:28:42Z,42.805,6.029,13.3000,4.60028,2470.38,2021-10-24T07:30:06Z
2021-10-24T05:31:45Z,42.805,6.029,13.2998,4.60033,2470.38,2021-10-24T07:33:10Z
2021-10-24T05:34:48Z,42.805,6.029,13.3000,4.60039,2470.39,2021-10-24T07:36:13Z
2021-10-24T05:37:52Z,42.805,6.029,13.2998,4.60029,2470.38,2021-10-24T07:39:16Z
2021-10-24T05:40:55Z,42.805,6.029,13.3009,4.60039,2470.39,2021-10-24T07:42:19Z
2021-10-24T05:43:58Z,42.805,6.029,13.2997,4.60039,2470.39,2021-10-24T07:45:22Z
2021-10-24T05:47:01Z,42.805,6.029,13.3007,4.60042,2470.39,2021-10-24T07:48:25Z
2021-10-24T05:50:04Z,42.805,6.029,13.3003,4.60046,2470.413,2021-10-24T07:51:28Z
2021-10-24T05:53:07Z,42.805,6.029,13.2998,4.60033,2470.427,2021-10-24T07:54:31Z
2021-10-24T05:56:10Z,42.805,6.029,13.3003,4.60031,2470.427,2021-10-24T07:57:35Z
2021-10-24T05:59:14Z,42.805,6.029,13.3001,4.60031,2470.413,2021-10-24T08:00:38Z
2021-10-24T06:02:17Z,42.805,6.029,13.3001,4.60038,2470.39,2021-10-24T08:03:41Z
2021-10-24T06:05:20Z,42.805,6.029,13.2997,4.60033,2470.38,2021-10-24T08:06:44Z
2021-10-24T06:08:23Z,42.805,6.029,13.2996,4.60036,2470.366,2021-10-24T08:09:47Z
2021-10-24T06:11:26Z,42.805,6.029,13.2999,4.60042,2470.376,2021-10-24T08:12:50Z
2021-10-24T06:14:29Z,42.805,6.029,13.3001,4.60055,2470.413,2021-10-24T08:15:53Z
2021-10-24T06:17:32Z,42.805,6.029,13.2998,4.60031,2470.404,2021-10-24T08:18:56Z
2021-10-24T06:20:35Z,42.805,6.029,13.3010,4.60052,2470.413,2021-10-24T08:22:00Z
2021-10-24T06:23:38Z,42.805,6.029,13.3004,4.60053,2470.39,2021-10-24T08:25:03Z
2021-10-24T06:26:42Z,42.805,6.029,13.3005,4.60031,2470.437,2021-10-24T08:28:06Z
2021-10-24T06:29:45Z,42.805,6.029,13.2997,4.60036,2470.474,2021-10-24T08:31:09Z
2021-10-24T06:32:48Z,42.805,6.029,13.3003,4.60037,2470.45,2021-10-24T08:34:12Z
2021-10-24T06:35:51Z,42.805,6.029,13.3006,4.60046,2470.46,2021-10-24T08:37:15Z
2021-10-24T06:38:54Z,42.805,6.029,13.3003,4.60043,2470.474,2021-10-24T08:40:18Z
2021-10-24T06:41:57Z,42.805,6.029,13.2998,4.60035,2470.45,2021-10-24T08:43:21Z
2021-10-24T06:45:00Z,42.805,6.029,13.2996,4.60031,2470.437,2021-10-24T08:46:24Z
2021-10-24T06:48:03Z,42.805,6.029,13.3015,4.60035,2470.483,2021-10-24T08:49:28Z
2021-10-24T06:51:07Z,42.805,6.029,13.3006,4.60043,2470.437,2021-10-24T08:52:31Z
2021-10-24T06:54:10Z,42.805,6.029,13.3002,4.60044,2470.413,2021-10-24T08:55:34Z
2021-10-24T06:57:13Z,42.805,6.029,13.2999,4.60033,2470.46,2021-10-24T08:58:37Z
2021-10-24T07:00:16Z,42.805,6.029,13.3005,4.60046,2470.483,2021-10-24T09:01:40Z
2021-10-24T07:03:19Z,42.805,6.029,13.3005,4.60039,2470.46,2021-10-24T09:04:43Z
2021-10-24T07:06:22Z,42.805,6.029,13.3000,4.60044,2470.483,2021-10-24T09:07:46Z
2021-10-24T07:09:25Z,42.805,6.029,13.3001,4.60052,2470.483,2021-10-24T09:10:49Z
2021-10-24T07:12:28Z,42.805,6.029,13.2998,4.60039,2470.497,2021-10-24T09:13:53Z
2021-10-24T07:15:32Z,42.805,6.029,13.3004,4.60046,2470.437,2021-10-24T09:16:56Z
2021-10-24T07:18:35Z,42.805,6.029,13.3006,4.60042,2470.46,2021-10-24T09:19:59Z
2021-10-24T07:21:38Z,42.805,6.029,13.2994,4.60049,2470.493,2021-10-24T09:23:02Z
2021-10-24T07:24:41Z,42.805,6.029,13.2996,4.60029,2470.474,2021-10-24T09:26:05Z
2021-10-24T07:27:44Z,42.805,6.029,13.2998,4.60040,2470.52,2021-10-24T09:29:08Z
2021-10-24T07:30:47Z,42.805,6.029,13.3013,4.60045,2470.483,2021-10-24T09:32:11Z
2021-10-24T07:33:50Z,42.805,6.029,13.3000,4.60042,2470.544,2021-10-24T09:35:14Z
2021-10-24T07:36:53Z,42.805,6.029,13.2998,4.60033,2470.497,2021-10-24T09:38:18Z
2021-10-24T07:39:57Z,42.805,6.029,13.3008,4.60037,2470.544,2021-10-24T09:41:21Z
2021-10-24T07:43:00Z,42.805,6.029,13.3000,4.60039,2470.544,2021-10-24T09:44:24Z
2021-10-24T07:46:03Z,42.805,6.029,13.3005,4.60052,2470.544,2021-10-24T09:47:27Z
2021-10-24T07:49:06Z,42.805,6.029,13.2999,4.60038,2470.52,2021-10-24T09:50:30Z
2021-10-24T07:52:09Z,42.805,6.029,13.3006,4.60039,2470.53,2021-10-24T09:53:33Z
2021-10-24T07:55:12Z,42.805,6.029,13.3002,4.60039,2470.53,2021-10-24T09:56:36Z
2021-10-24T07:58:15Z,42.805,6.029,13.3007,4.60029,2470.497,2021-10-24T09:59:39Z
2021-10-24T08:01:18Z,42.805,6.029,13.3000,4.60040,2470.53,2021-10-24T10:02:43Z
2021-10-24T08:04:22Z,42.805,6.029,13.2995,4.60040,2470.544,2021-10-24T10:05:46Z
2021-10-24T08:07:25Z,42.805,6.029,13.3004,4.60044,2470.53,2021-10-24T10:08:49Z
2021-10-24T08:10:28Z,42.805,6.029,13.3003,4.60059,2470.483,2021-10-24T10:11:52Z
2021-10-24T08:13:31Z,42.805,6.029,13.3000,4.60044,2470.507,2021-10-24T10:14:55Z
2021-10-24T08:16:34Z,42.805,6.029,13.2996,4.60034,2470.544,2021-10-24T10:17:58Z
2021-10-24T08:19:37Z,42.805,6.029,13.3006,4.60046,2470.544,2021-10-24T10:21:01Z
2021-10-24T08:22:40Z,42.805,6.029,13.3009,4.60056,2470.53,2021-10-24T10:24:04Z
2021-10-24T08:25:43Z,42.805,6.029,13.2997,4.60039,2470.544,2021-10-24T10:27:08Z
2021-10-24T08:28:47Z,42.805,6.029,13.3009,4.60042,2470.53,2021-10-24T10:30:11Z
2021-10-24T08:31:50Z,42.805,6.029,13.3003,4.60042,2470.53,2021-10-24T10:33:14Z
2021-10-24T08:34:53Z,42.805,6.029,13.2999,4.60045,2470.53,2021-10-24T10:36:17Z
2021-10-24T08:37:56Z,42.805,6.029,13.2996,4.60032,2470.567,2021-10-24T10:39:20Z
2021-10-24T08:40:59Z,42.805,6.029,13.2998,4.60033,2470.52,2021-10-24T10:42:23Z
2021-10-24T08:44:02Z,42.805,6.029,13.3009,4.60033,2470.553,2021-10-24T10:45:26Z
2021-10-24T08:47:05Z,42.805,6.029,13.3004,4.60036,2470.553,2021-10-24T10:48:30Z
2021-10-24T08:50:08Z,42.805,6.029,13.3002,4.60048,2470.567,2021-10-24T10:51:33Z
2021-10-24T08:53:12Z,42.805,6.029,13.3004,4.60042,2470.53,2021-10-24T10:54:36Z
2021-10-24T08:56:15Z,42.805,6.029,13.3007,4.60036,2470.553,2021-10-24T10:57:39Z
2021-10-24T08:59:18Z,42.805,6.029,13.3011,4.60042,2470.553,2021-10-24T11:00:42Z
2021-10-24T09:02:21Z,42.805,6.029,13.3004,4.60044,2470.53,2021-10-24T11:03:45Z
2021-10-24T09:05:24Z,42.805,6.029,13.3006,4.60049,2470.567,2021-10-24T11:06:48Z
2021-10-24T09:08:27Z,42.805,6.029,13.3001,4.60039,2470.53,2021-10-24T11:09:51Z
2021-10-24T09:11:30Z,42.805,6.029,13.3004,4.60041,2470.53,2021-10-24T11:12:54Z
2021-10-24T09:14:33Z,42.805,6.029,13.3006,4.60044,2470.567,2021-10-24T11:15:58Z
2021-10-24T09:17:37Z,42.805,6.029,13.2997,4.60033,2470.567,2021-10-24T11:19:01Z
2021-10-24T09:20:40Z,42.805,6.029,13.3007,4.60044,2470.53,2021-10-24T11:22:04Z
2021-10-24T09:23:43Z,42.805,6.029,13.3002,4.60032,2470.53,2021-10-24T11:25:07Z
2021-10-24T09:26:46Z,42.805,6.029,13.2999,4.60049,2470.567,2021-10-24T11:28:10Z
2021-10-24T09:29:49Z,42.805,6.029,13.3005,4.60047,2470.544,2021-10-24T11:31:13Z
2021-10-24T09:32:52Z,42.805,6.029,13.2998,4.60041,2470.553,2021-10-24T11:34:16Z
2021-10-24T09:35:55Z,42.805,6.029,13.3000,4.60038,2470.567,2021-10-24T11:37:20Z
2021-10-24T09:38:58Z,42.805,6.029,13.3004,4.60037,2470.52,2021-10-24T11:40:23Z
2021-10-24T09:42:02Z,42.805,6.029,13.3004,4.60031,2470.544,2021-10-24T11:43:26Z
2021-10-24T09:45:05Z,42.805,6.029,13.2998,4.60039,2470.507,2021-10-24T11:46:29Z
2021-10-24T09:48:08Z,42.805,6.029,13.3000,4.60039,2470.553,2021-10-24T11:49:32Z
2021-10-24T09:51:11Z,42.805,6.029,13.3004,4.60036,2470.544,2021-10-24T11:52:35Z
2021-10-24T09:54:14Z,42.805,6.029,13.3005,4.60037,2470.507,2021-10-24T11:55:38Z
2021-10-24T09:57:17Z,42.805,6.029,13.2996,4.60034,2470.53,2021-10-24T11:58:41Z
2021-10-24T10:00:20Z,42.805,6.029,13.3004,4.60051,2470.52,2021-10-24T12:01:45Z
2021-10-24T10:03:24Z,42.805,6.029,13.2997,4.60034,2470.507,2021-10-24T12:04:48Z
2021-10-24T10:06:27Z,42.805,6.029,13.3000,4.60049,2470.53,2021-10-24T12:07:51Z
2021-10-24T10:09:30Z,42.805,6.029,13.3010,4.60049,2470.507,2021-10-24T12:10:54Z
2021-10-24T10:12:33Z,42.805,6.029,13.3006,4.60043,2470.53,2021-10-24T12:13:57Z
2021-10-24T10:15:36Z,42.805,6.029,13.3008,4.60053,2470.544,2021-10-24T12:17:00Z
2021-10-24T10:18:39Z,42.805,6.029,13.3007,4.60039,2470.52,2021-10-24T12:20:03Z
2021-10-24T10:21:42Z,42.805,6.029,13.3005,4.60040,2470.567,2021-10-24T12:23:06Z
2021-10-24T10:24:45Z,42.805,6.029,13.3004,4.60050,2470.544,2021-10-24T12:26:10Z
2021-10-24T10:27:49Z,42.805,6.029,13.3006,4.60042,2470.53,2021-10-24T12:29:13Z
2021-10-24T10:30:52Z,42.805,6.029,13.3005,4.60047,2470.507,2021-10-24T12:32:16Z
2021-10-24T10:33:55Z,42.805,6.029,13.3010,4.60046,2470.507,2021-10-24T12:35:19Z
2021-10-24T10:36:58Z,42.805,6.029,13.3004,4.60042,2470.52,2021-10-24T12:38:22Z
2021-10-24T10:40:01Z,42.805,6.029,13.3004,4.60032,2470.507,2021-10-24T12:41:25Z
2021-10-24T10:43:04Z,42.805,6.029,13.3009,4.60044,2470.497,2021-10-24T12:44:28Z
2021-10-24T10:46:07Z,42.805,6.029,13.3004,4.60033,2470.52,2021-10-24T12:47:31Z
2021-10-24T10:49:10Z,42.805,6.029,13.3009,4.60051,2470.483,2021-10-24T12:50:35Z
2021-10-24T10:52:14Z,42.805,6.029,13.3009,4.60044,2470.52,2021-10-24T12:53:38Z
2021-10-24T10:55:17Z,42.805,6.029,13.3005,4.60042,2470.52,2021-10-24T12:56:41Z
2021-10-24T10:58:20Z,42.805,6.029,13.3003,4.60035,2470.52,2021-10-24T12:59:44Z
2021-10-24T11:01:23Z,42.805,6.029,13.3009,4.60055,2470.52,2021-10-24T13:02:47Z
2021-10-24T11:04:26Z,42.805,6.029,13.3007,4.60039,2470.483,2021-10-24T13:05:50Z
2021-10-24T11:07:29Z,42.805,6.029,13.3003,4.60043,2470.483,2021-10-24T13:08:53Z
2021-10-24T11:10:32Z,42.805,6.029,13.3009,4.60053,2470.497,2021-10-24T13:11:57Z
2021-10-24T11:13:35Z,42.805,6.029,13.3001,4.60033,2470.507,2021-10-24T13:15:00Z
2021-10-24T11:16:39Z,42.805,6.029,13.3007,4.60044,2470.483,2021-10-24T13:18:03Z
2021-10-24T11:19:42Z,42.805,6.029,13.3007,4.60054,2470.497,2021-10-24T13:21:06Z
2021-10-24T11:22:45Z,42.805,6.029,13.3009,4.60041,2470.46,2021-10-24T13:24:09Z
2021-10-24T11:25:48Z,42.805,6.029,13.3006,4.60042,2470.497,2021-10-24T13:27:12Z
2021-10-24T11:28:51Z,42.805,6.029,13.3007,4.60049,2470.474,2021-10-24T13:30:15Z
2021-10-24T11:31:54Z,42.805,6.029,13.3002,4.60060,2470.507,2021-10-24T13:33:18Z
2021-10-24T11:34:57Z,42.805,6.029,13.3006,4.60045,2470.46,2021-10-24T13:36:22Z
2021-10-24T11:38:00Z,42.805,6.029,13.3007,4.60050,2470.474,2021-10-24T13:39:25Z
2021-10-24T11:41:04Z,42.805,6.029,13.3011,4.60054,2470.483,2021-10-24T13:42:28Z
2021-10-24T11:44:07Z,42.805,6.029,13.3004,4.60036,2470.507,2021-10-24T13:45:31Z
2021-10-24T11:47:10Z,42.805,6.029,13.3004,4.60033,2470.474,2021-10-24T13:48:34Z
2021-10-24T11:50:13Z,42.805,6.029,13.3005,4.60042,2470.497,2021-10-24T13:51:37Z
2021-10-24T11:53:16Z,42.805,6.029,13.3005,4.60038,2470.474,2021-10-24T13:54:40Z
2021-10-24T11:56:19Z,42.805,6.029,13.3002,4.60040,2470.46,2021-10-24T13:57:43Z
2021-10-24T11:59:22Z,42.805,6.029,13.3011,4.60039,2470.474,2021-10-24T14:00:47Z
2021-10-24T12:02:25Z,42.805,6.029,13.3013,4.60038,2470.474,2021-10-24T14:03:50Z
2021-10-24T12:05:29Z,42.805,6.029,13.3000,4.60033,2470.446,2021-10-24T14:06:53Z
2021-10-24T12:08:32Z,42.805,6.029,13.3007,4.60036,2470.45,2021-10-24T14:09:56Z
2021-10-24T12:11:35Z,42.805,6.029,13.3001,4.60038,2470.45,2021-10-24T14:12:59Z
2021-10-24T12:14:38Z,42.805,6.029,13.3004,4.60031,2470.437,2021-10-24T14:16:02Z
2021-10-24T12:17:41Z,42.805,6.029,13.3004,4.60044,2470.427,2021-10-24T14:19:05Z
2021-10-24T12:20:44Z,42.805,6.029,13.3004,4.60042,2470.474,2021-10-24T14:22:08Z
2021-10-24T12:23:47Z,42.805,6.029,13.2999,4.60034,2470.437,2021-10-24T14:25:12Z
2021-10-24T12:26:51Z,42.805,6.029,13.3008,4.60035,2470.474,2021-10-24T14:28:15Z
2021-10-24T12:29:54Z,42.805,6.029,13.3004,4.60033,2470.46,2021-10-24T14:31:18Z
2021-10-24T12:32:57Z,42.805,6.029,13.2998,4.60054,2470.423,2021-10-24T14:34:21Z
2021-10-24T12:36:00Z,42.805,6.029,13.3001,4.60044,2470.45,2021-10-24T14:37:24Z
2021-10-24T12:39:03Z,42.805,6.029,13.2999,4.60027,2470.437,2021-10-24T14:40:27Z
2021-10-24T12:42:06Z,42.805,6.029,13.3000,4.60034,2470.437,2021-10-24T14:43:30Z
2021-10-24T12:45:09Z,42.805,6.029,13.3001,4.60036,2470.45,2021-10-24T14:46:33Z
2021-10-24T12:48:12Z,42.805,6.029,13.2998,4.60032,2470.45,2021-10-24T14:49:37Z
2021-10-24T12:51:16Z,42.805,6.029,13.3000,4.60043,2470.413,2021-10-24T14:52:40Z
2021-10-24T12:54:19Z,42.805,6.029,13.3000,4.60036,2470.45,2021-10-24T14:55:43Z
2021-10-24T12:57:22Z,42.805,6.029,13.3003,4.60049,2470.413,2021-10-24T14:58:46Z
2021-10-24T13:00:25Z,42.805,6.029,13.2997,4.60029,2470.437,2021-10-24T15:01:49Z
2021-10-24T13:03:28Z,42.805,6.029,13.3001,4.60033,2470.474,2021-10-24T15:04:52Z
2021-10-24T13:06:31Z,42.805,6.029,13.2997,4.60031,2470.497,2021-10-24T15:07:55Z
2021-10-24T13:09:34Z,42.805,6.029,13.2993,4.60046,2470.413,2021-10-24T15:10:59Z
2021-10-24T13:12:37Z,42.805,6.029,13.2996,4.60037,2470.39,2021-10-24T15:14:02Z
2021-10-24T13:15:41Z,42.805,6.029,13.3000,4.60033,2470.427,2021-10-24T15:17:05Z
2021-10-24T13:18:44Z,42.805,6.029,13.2997,4.60033,2470.437,2021-10-24T15:20:08Z
2021-10-24T13:21:47Z,42.805,6.029,13.2996,4.60039,2470.427,2021-10-24T15:23:11Z
2021-10-24T13:24:50Z,42.805,6.029,13.3006,4.60042,2470.427,2021-10-24T15:26:14Z
2021-10-24T13:27:53Z,42.805,6.029,13.2996,4.60029,2470.404,2021-10-24T15:29:17Z
2021-10-24T13:30:56Z,42.805,6.029,13.3004,4.60042,2470.427,2021-10-24T15:32:20Z
2021-10-24T13:33:59Z,42.805,6.029,13.3001,4.60042,2470.427,2021-10-24T15:35:24Z
2021-10-24T13:37:02Z,42.805,6.029,13.3009,4.60052,2470.413,2021-10-24T15:38:27Z
2021-10-24T13:40:06Z,42.805,6.029,13.2993,4.60037,2470.39,2021-10-24T15:41:30Z
2021-10-24T13:43:09Z,42.805,6.029,13.3000,4.60041,2470.39,2021-10-24T15:44:33Z
2021-10-24T13:46:12Z,42.805,6.029,13.2994,4.60020,2470.39,2021-10-24T15:47:36Z
2021-10-24T13:49:15Z,42.805,6.029,13.2996,4.60049,2470.366,2021-10-24T15:50:39Z
2021-10-24T13:52:18Z,42.805,6.029,13.2996,4.60028,2470.376,2021-10-24T15:53:42Z
2021-10-24T13:55:21Z,42.805,6.029,13.3000,4.60036,2470.366,2021-10-24T15:56:45Z
2021-10-24T13:58:24Z,42.805,6.029,13.2994,4.60038,2470.404,2021-10-24T15:59:49Z
2021-10-24T14:01:28Z,42.805,6.029,13.3004,4.60042,2470.39,2021-10-24T16:02:52Z
2021-10-24T14:04:31Z,42.805,6.029,13.3003,4.60060,2470.366,2021-10-24T16:05:55Z
2021-10-24T14:07:34Z,42.805,6.029,13.2994,4.60031,2470.404,2021-10-24T16:08:58Z
2021-10-24T14:10:37Z,42.805,6.029,13.2991,4.60036,2470.39,2021-10-24T16:12:01Z
2021-10-24T14:13:40Z,42.805,6.029,13.3000,4.60031,2470.38,2021-10-24T16:15:04Z
2021-10-24T14:16:43Z,42.805,6.029,13.2991,4.60033,2470.39,2021-10-24T16:18:07Z
2021-10-24T14:19:46Z,42.805,6.029,13.3000,4.60043,2470.404,2021-10-24T16:21:10Z
2021-10-24T14:22:49Z,42.805,6.029,13.2995,4.60026,2470.404,2021-10-24T16:24:14Z
2021-10-24T14:25:53Z,42.805,6.029,13.3004,4.60034,2470.39,2021-10-24T16:27:17Z
2021-10-24T14:28:56Z,42.805,6.029,13.2998,4.60037,2470.413,2021-10-24T16:30:20Z
2021-10-24T14:31:59Z,42.805,6.029,13.2999,4.60057,2470.404,2021-10-24T16:33:23Z
2021-10-24T14:35:02Z,42.805,6.029,13.2998,4.60047,2470.404,2021-10-24T16:36:26Z
2021-10-24T14:38:05Z,42.805,6.029,13.3000,4.60035,2470.39,2021-10-24T16:39:29Z
2021-10-24T14:41:08Z,42.805,6.029,13.2993,4.60033,2470.38,2021-10-24T16:42:32Z
2021-10-24T14:44:11Z,42.805,6.029,13.3000,4.60040,2470.413,2021-10-24T16:45:36Z
2021-10-24T14:47:14Z,42.805,6.029,13.3005,4.60039,2470.366,2021-10-24T16:48:39Z
2021-10-24T14:50:18Z,42.805,6.029,13.2998,4.60039,2470.366,2021-10-24T16:51:42Z
2021-10-24T14:53:21Z,42.805,6.029,13.3000,4.60049,2470.404,2021-10-24T16:54:45Z
2021-10-24T14:56:24Z,42.805,6.029,13.2998,4.60054,2470.366,2021-10-24T16:57:48Z
2021-10-24T14:59:27Z,42.805,6.029,13.3001,4.60050,2470.39,2021-10-24T17:00:51Z
2021-10-24T15:02:30Z,42.805,6.029,13.3009,4.60042,2470.38,2021-10-24T17:03:54Z